Time,TemperatureF,DewpointF,PressureIn,WindDirection,WindDirectionDegrees,WindSpeedMPH,WindSpeedGustMPH,Humidity,HourlyPrecipIn,Conditions,Clouds,dailyrainin,SoftwareType,DateUTC
2013-01-21 00:02:00,49.0,25.0,30.06,NW,315,0.0,0.0,38,0.00,,,0.00,,2013-01-21 07:02:00,
2013-01-21 00:11:00,49.0,25.0,30.06,NW,315,0.0,0.0,38,0.00,,,0.00,,2013-01-21 07:11:00,
2013-01-21 00:22:00,48.0,25.0,30.06,NW,315,0.0,0.0,40,0.00,,,0.00,,2013-01-21 07:22:00,
2013-01-21 00:32:00,47.0,24.0,30.06,NW,315,0.0,0.0,40,0.00,,,0.00,,2013-01-21 07:32:00,
2013-01-21 00:42:00,47.0,24.0,30.06,NW,315,0.0,0.0,40,0.00,,,0.00,,2013-01-21 07:42:00,
2013-01-21 00:52:00,47.0,24.0,30.06,NW,315,1.0,3.0,40,0.00,,,0.00,,2013-01-21 07:52:00,
2013-01-21 01:02:00,47.0,21.0,30.05,NNW,338,3.0,3.0,36,0.00,,,0.00,,2013-01-21 08:02:00,
2013-01-21 01:12:00,47.0,21.0,30.05,NNW,338,3.0,3.0,36,0.00,,,0.00,,2013-01-21 08:12:00,
2013-01-21 01:22:00,50.0,17.0,30.05,NNW,338,2.0,3.0,27,0.00,,,0.00,,2013-01-21 08:22:00,
2013-01-21 01:32:00,52.0,18.0,30.05,NNW,338,2.0,3.0,26,0.00,,,0.00,,2013-01-21 08:32:00,
2013-01-21 01:42:00,52.0,18.0,30.05,NNW,338,2.0,3.0,26,0.00,,,0.00,,2013-01-21 08:42:00,
2013-01-21 01:53:00,52.0,16.0,30.05,NNW,338,2.0,3.0,24,0.00,,,0.00,,2013-01-21 08:53:00,
2013-01-21 02:02:00,54.0,17.0,30.05,North,0,3.0,5.0,23,0.00,,,0.00,,2013-01-21 09:02:00,
2013-01-21 02:11:00,54.0,17.0,30.05,North,0,3.0,5.0,23,0.00,,,0.00,,2013-01-21 09:11:00,
2013-01-21 02:22:00,55.0,16.0,30.05,North,0,2.0,5.0,21,0.00,,,0.00,,2013-01-21 09:22:00,
2013-01-21 02:32:00,54.0,15.0,30.06,North,0,2.0,3.0,21,0.00,,,0.00,,2013-01-21 09:32:00,
2013-01-21 02:42:00,54.0,15.0,30.06,North,0,2.0,3.0,21,0.00,,,0.00,,2013-01-21 09:42:00,
2013-01-21 02:53:00,54.0,16.0,30.05,North,0,2.0,3.0,22,0.00,,,0.00,,2013-01-21 09:53:00,
2013-01-21 03:02:00,54.0,16.0,30.05,North,0,3.0,6.0,22,0.00,,,0.00,,2013-01-21 10:02:00,
2013-01-21 03:11:00,54.0,16.0,30.05,North,0,3.0,6.0,22,0.00,,,0.00,,2013-01-21 10:11:00,
2013-01-21 03:22:00,55.0,19.0,30.05,North,0,2.0,3.0,24,0.00,,,0.00,,2013-01-21 10:22:00,
2013-01-21 03:32:00,54.0,17.0,30.04,North,0,3.0,6.0,23,0.00,,,0.00,,2013-01-21 10:32:00,
2013-01-21 03:42:00,54.0,17.0,30.04,North,0,3.0,6.0,23,0.00,,,0.00,,2013-01-21 10:42:00,
2013-01-21 03:52:00,54.0,15.0,30.03,North,0,1.0,2.0,21,0.00,,,0.00,,2013-01-21 10:52:00,
2013-01-21 04:02:00,53.0,14.0,30.03,North,0,2.0,3.0,21,0.00,,,0.00,,2013-01-21 11:02:00,
2013-01-21 04:12:00,53.0,14.0,30.03,North,0,2.0,3.0,21,0.00,,,0.00,,2013-01-21 11:12:00,
2013-01-21 04:22:00,52.0,14.0,30.03,North,0,2.0,3.0,22,0.00,,,0.00,,2013-01-21 11:22:00,
2013-01-21 04:32:00,52.0,13.0,30.03,North,0,1.0,2.0,21,0.00,,,0.00,,2013-01-21 11:32:00,
2013-01-21 04:42:00,52.0,13.0,30.03,North,0,1.0,2.0,21,0.00,,,0.00,,2013-01-21 11:42:00,
2013-01-21 04:53:00,52.0,16.0,30.03,North,0,2.0,3.0,24,0.00,,,0.00,,2013-01-21 11:53:00,
2013-01-21 05:02:00,52.0,14.0,30.04,North,0,3.0,3.0,22,0.00,,,0.00,,2013-01-21 12:02:00,
2013-01-21 05:11:00,52.0,14.0,30.04,North,0,3.0,3.0,22,0.00,,,0.00,,2013-01-21 12:11:00,
2013-01-21 05:22:00,52.0,16.0,30.04,North,0,3.0,6.0,24,0.00,,,0.00,,2013-01-21 12:22:00,
2013-01-21 05:32:00,52.0,15.0,30.04,NNW,338,3.0,3.0,23,0.00,,,0.00,,2013-01-21 12:32:00,
2013-01-21 05:42:00,52.0,15.0,30.04,NNW,338,3.0,3.0,23,0.00,,,0.00,,2013-01-21 12:42:00,
2013-01-21 05:52:00,54.0,15.0,30.03,North,0,3.0,6.0,21,0.00,,,0.00,,2013-01-21 12:52:00,
2013-01-21 06:02:00,55.0,16.0,30.04,North,0,5.0,7.0,21,0.00,,,0.00,,2013-01-21 13:02:00,
2013-01-21 06:12:00,55.0,16.0,30.04,North,0,5.0,7.0,21,0.00,,,0.00,,2013-01-21 13:12:00,
2013-01-21 06:22:00,55.0,16.0,30.03,NNW,338,3.0,5.0,21,0.00,,,0.00,,2013-01-21 13:22:00,
2013-01-21 06:32:00,53.0,14.0,30.04,NNW,338,1.0,3.0,21,0.00,,,0.00,,2013-01-21 13:32:00,
2013-01-21 06:42:00,53.0,14.0,30.04,NNW,338,1.0,3.0,21,0.00,,,0.00,,2013-01-21 13:42:00,
2013-01-21 06:53:00,52.0,15.0,30.04,NNW,338,3.0,5.0,23,0.00,,,0.00,,2013-01-21 13:53:00,
2013-01-21 07:02:00,52.0,15.0,30.04,North,0,5.0,7.0,23,0.00,,,0.00,,2013-01-21 14:02:00,
2013-01-21 07:12:00,52.0,15.0,30.04,North,0,5.0,7.0,23,0.00,,,0.00,,2013-01-21 14:12:00,
2013-01-21 07:22:00,52.0,14.0,30.04,NNW,338,2.0,3.0,22,0.00,,,0.00,,2013-01-21 14:22:00,
2013-01-21 07:32:00,53.0,15.0,30.05,North,0,2.0,5.0,22,0.00,,,0.00,,2013-01-21 14:32:00,
2013-01-21 07:42:00,53.0,15.0,30.05,North,0,2.0,5.0,22,0.00,,,0.00,,2013-01-21 14:42:00,
2013-01-21 07:53:00,54.0,15.0,30.05,North,0,2.0,5.0,21,0.00,,,0.00,,2013-01-21 14:53:00,
2013-01-21 08:02:00,54.0,16.0,30.06,North,0,3.0,6.0,22,0.00,,,0.00,,2013-01-21 15:02:00,
2013-01-21 08:12:00,54.0,16.0,30.06,North,0,3.0,6.0,22,0.00,,,0.00,,2013-01-21 15:12:00,
2013-01-21 08:22:00,53.0,15.0,30.07,North,0,2.0,3.0,22,0.00,,,0.00,,2013-01-21 15:22:00,
2013-01-21 08:32:00,54.0,16.0,30.07,NW,315,2.0,3.0,22,0.00,,,0.00,,2013-01-21 15:32:00,
2013-01-21 08:42:00,54.0,16.0,30.07,NW,315,2.0,3.0,22,0.00,,,0.00,,2013-01-21 15:42:00,
2013-01-21 08:53:00,55.0,17.0,30.08,NNW,338,3.0,3.0,22,0.00,,,0.00,,2013-01-21 15:53:00,
2013-01-21 09:02:00,56.0,18.0,30.08,North,0,1.0,2.0,22,0.00,,,0.00,,2013-01-21 16:02:00,
2013-01-21 09:11:00,56.0,18.0,30.08,North,0,1.0,2.0,22,0.00,,,0.00,,2013-01-21 16:11:00,
2013-01-21 09:22:00,57.0,19.0,30.09,NW,315,2.0,5.0,22,0.00,,,0.00,,2013-01-21 16:22:00,
2013-01-21 09:32:00,59.0,19.0,30.09,North,0,6.0,9.0,21,0.00,,,0.00,,2013-01-21 16:32:00,
2013-01-21 09:42:00,59.0,19.0,30.09,North,0,6.0,9.0,21,0.00,,,0.00,,2013-01-21 16:42:00,
2013-01-21 09:53:00,61.0,18.0,30.10,North,0,8.0,13.0,19,0.00,,,0.00,,2013-01-21 16:53:00,
2013-01-21 10:02:00,62.0,19.0,30.11,NNW,338,3.0,5.0,19,0.00,,,0.00,,2013-01-21 17:02:00,
2013-01-21 10:12:00,62.0,19.0,30.11,NNW,338,3.0,5.0,19,0.00,,,0.00,,2013-01-21 17:12:00,
2013-01-21 10:22:00,63.0,20.0,30.11,North,0,9.0,13.0,19,0.00,,,0.00,,2013-01-21 17:22:00,
2013-01-21 10:32:00,64.0,18.0,30.11,North,0,10.0,15.0,17,0.00,,,0.00,,2013-01-21 17:32:00,
2013-01-21 10:42:00,64.0,18.0,30.11,North,0,10.0,15.0,17,0.00,,,0.00,,2013-01-21 17:42:00,
2013-01-21 10:53:00,65.0,19.0,30.11,North,0,8.0,14.0,17,0.00,,,0.00,,2013-01-21 17:53:00,
2013-01-21 11:02:00,66.0,20.0,30.12,North,0,9.0,12.0,17,0.00,,,0.00,,2013-01-21 18:02:00,
2013-01-21 11:22:00,66.0,20.0,30.12,North,0,8.0,12.0,17,0.00,,,0.00,,2013-01-21 18:22:00,
2013-01-21 11:32:00,67.0,21.0,30.11,North,0,10.0,17.0,17,0.00,,,0.00,,2013-01-21 18:32:00,
2013-01-21 11:42:00,67.0,21.0,30.11,North,0,10.0,17.0,17,0.00,,,0.00,,2013-01-21 18:42:00,
2013-01-21 11:52:00,67.0,21.0,30.11,North,0,10.0,13.0,17,0.00,,,0.00,,2013-01-21 18:52:00,
2013-01-21 12:02:00,68.0,19.0,30.11,North,0,7.0,12.0,15,0.00,,,0.00,,2013-01-21 19:02:00,
2013-01-21 12:12:00,69.0,19.0,30.10,North,0,10.0,14.0,15,0.00,,,0.00,,2013-01-21 19:12:00,
2013-01-21 12:22:00,69.0,19.0,30.10,North,0,10.0,14.0,15,0.00,,,0.00,,2013-01-21 19:22:00,
2013-01-21 12:32:00,70.0,20.0,30.09,North,0,12.0,20.0,15,0.00,,,0.00,,2013-01-21 19:32:00,
2013-01-21 12:53:00,70.0,20.0,30.09,North,0,9.0,15.0,15,0.00,,,0.00,,2013-01-21 19:53:00,
2013-01-21 13:02:00,71.0,24.0,30.09,NNW,338,8.0,12.0,17,0.00,,,0.00,,2013-01-21 20:02:00,
2013-01-21 13:22:00,71.0,21.0,30.08,North,0,6.0,14.0,15,0.00,,,0.00,,2013-01-21 20:22:00,
2013-01-21 13:32:00,72.0,23.0,30.08,North,0,9.0,15.0,16,0.00,,,0.00,,2013-01-21 20:32:00,
2013-01-21 14:02:00,73.0,23.0,30.06,North,0,7.0,12.0,15,0.00,,,0.00,,2013-01-21 21:02:00,
2013-01-21 14:32:00,73.0,23.0,30.05,North,0,9.0,13.0,15,0.00,,,0.00,,2013-01-21 21:32:00,
2013-01-21 14:53:00,73.0,23.0,30.05,NNW,338,9.0,13.0,15,0.00,,,0.00,,2013-01-21 21:53:00,
2013-01-21 15:02:00,74.0,23.0,30.05,North,0,9.0,13.0,15,0.00,,,0.00,,2013-01-21 22:02:00,
2013-01-21 15:22:00,74.0,23.0,30.05,North,0,5.0,7.0,15,0.00,,,0.00,,2013-01-21 22:22:00,
2013-01-21 15:32:00,74.0,23.0,30.04,North,0,6.0,8.0,15,0.00,,,0.00,,2013-01-21 22:32:00,
2013-01-21 15:52:00,74.0,23.0,30.04,North,0,7.0,9.0,15,0.00,,,0.00,,2013-01-21 22:52:00,
2013-01-21 16:02:00,75.0,24.0,30.03,NNW,338,6.0,8.0,15,0.00,,,0.00,,2013-01-21 23:02:00,
2013-01-21 16:22:00,75.0,24.0,30.03,North,0,9.0,15.0,15,0.00,,,0.00,,2013-01-21 23:22:00,
2013-01-21 16:32:00,74.0,23.0,30.03,NNW,338,7.0,10.0,15,0.00,,,0.00,,2013-01-21 23:32:00,
2013-01-21 16:53:00,74.0,23.0,30.03,North,0,8.0,12.0,15,0.00,,,0.00,,2013-01-21 23:53:00,
2013-01-21 17:02:00,73.0,23.0,30.02,North,0,8.0,12.0,15,0.00,,,0.00,,2013-01-22 00:02:00,
2013-01-21 17:22:00,72.0,22.0,30.02,North,0,6.0,9.0,15,0.00,,,0.00,,2013-01-22 00:22:00,
2013-01-21 17:32:00,72.0,22.0,30.03,North,0,8.0,12.0,15,0.00,,,0.00,,2013-01-22 00:32:00,
2013-01-21 17:53:00,71.0,21.0,30.03,North,0,6.0,8.0,15,0.00,,,0.00,,2013-01-22 00:53:00,
2013-01-21 18:02:00,71.0,21.0,30.03,North,0,6.0,8.0,15,0.00,,,0.00,,2013-01-22 01:02:00,
2013-01-21 18:22:00,69.0,21.0,30.02,North,0,5.0,6.0,16,0.00,,,0.00,,2013-01-22 01:22:00,
2013-01-21 18:32:00,68.0,22.0,30.03,North,0,2.0,3.0,17,0.00,,,0.00,,2013-01-22 01:32:00,
2013-01-21 18:52:00,67.0,21.0,30.03,North,0,2.0,3.0,17,0.00,,,0.00,,2013-01-22 01:52:00,
2013-01-21 19:02:00,66.0,20.0,30.04,North,0,2.0,2.0,17,0.00,,,0.00,,2013-01-22 02:02:00,
2013-01-21 19:12:00,66.0,20.0,30.04,North,0,2.0,2.0,17,0.00,,,0.00,,2013-01-22 02:12:00,
2013-01-21 19:22:00,64.0,21.0,30.04,North,0,3.0,5.0,19,0.00,,,0.00,,2013-01-22 02:22:00,
2013-01-21 19:32:00,63.0,19.0,30.03,NNW,338,2.0,3.0,18,0.00,,,0.00,,2013-01-22 02:32:00,
2013-01-21 19:42:00,63.0,19.0,30.03,NNW,338,2.0,3.0,18,0.00,,,0.00,,2013-01-22 02:42:00,
2013-01-21 19:53:00,63.0,20.0,30.04,NNW,338,2.0,3.0,19,0.00,,,0.00,,2013-01-22 02:53:00,
2013-01-21 20:02:00,62.0,19.0,30.04,NNW,338,1.0,3.0,19,0.00,,,0.00,,2013-01-22 03:02:00,
2013-01-21 20:12:00,62.0,19.0,30.04,NNW,338,1.0,3.0,19,0.00,,,0.00,,2013-01-22 03:12:00,
2013-01-21 20:22:00,61.0,18.0,30.04,NNW,338,2.0,3.0,19,0.00,,,0.00,,2013-01-22 03:22:00,
2013-01-21 20:32:00,60.0,18.0,30.03,NNW,338,3.0,3.0,19,0.00,,,0.00,,2013-01-22 03:32:00,
2013-01-21 20:42:00,60.0,18.0,30.03,NNW,338,3.0,3.0,19,0.00,,,0.00,,2013-01-22 03:42:00,
2013-01-21 20:52:00,60.0,18.0,30.03,NNW,338,3.0,3.0,19,0.00,,,0.00,,2013-01-22 03:52:00,
2013-01-21 21:02:00,60.0,18.0,30.03,NNW,338,0.0,2.0,19,0.00,,,0.00,,2013-01-22 04:02:00,
2013-01-21 21:11:00,60.0,18.0,30.03,NNW,338,0.0,2.0,19,0.00,,,0.00,,2013-01-22 04:11:00,
2013-01-21 21:22:00,59.0,17.0,30.03,NNW,338,1.0,3.0,19,0.00,,,0.00,,2013-01-22 04:22:00,
2013-01-21 21:32:00,59.0,18.0,30.04,NNW,338,1.0,1.0,20,0.00,,,0.00,,2013-01-22 04:32:00,
2013-01-21 21:42:00,59.0,18.0,30.04,NNW,338,1.0,1.0,20,0.00,,,0.00,,2013-01-22 04:42:00,
2013-01-21 21:52:00,58.0,18.0,30.05,NNW,338,0.0,0.0,21,0.00,,,0.00,,2013-01-22 04:52:00,
2013-01-21 22:02:00,57.0,19.0,30.06,NNW,338,1.0,2.0,22,0.00,,,0.00,,2013-01-22 05:02:00,
2013-01-21 22:11:00,57.0,19.0,30.06,NNW,338,1.0,2.0,22,0.00,,,0.00,,2013-01-22 05:11:00,
2013-01-21 22:22:00,55.0,19.0,30.05,NNW,338,1.0,2.0,24,0.00,,,0.00,,2013-01-22 05:22:00,
2013-01-21 22:32:00,55.0,19.0,30.06,NNW,338,1.0,1.0,24,0.00,,,0.00,,2013-01-22 05:32:00,
2013-01-21 22:42:00,55.0,19.0,30.06,NNW,338,1.0,1.0,24,0.00,,,0.00,,2013-01-22 05:42:00,
2013-01-21 22:52:00,54.0,18.0,30.06,NNW,338,0.0,2.0,24,0.00,,,0.00,,2013-01-22 05:52:00,
2013-01-21 23:02:00,54.0,18.0,30.06,NW,315,0.0,0.0,24,0.00,,,0.00,,2013-01-22 06:02:00,
2013-01-21 23:11:00,54.0,18.0,30.06,NW,315,0.0,0.0,24,0.00,,,0.00,,2013-01-22 06:11:00,
2013-01-21 23:22:00,53.0,19.0,30.06,NW,315,2.0,3.0,26,0.00,,,0.00,,2013-01-22 06:22:00,
2013-01-21 23:32:00,53.0,18.0,30.07,WNW,293,2.0,3.0,25,0.00,,,0.00,,2013-01-22 06:32:00,
2013-01-21 23:52:00,53.0,19.0,30.07,WNW,293,1.0,1.0,26,0.00,,,0.00,,2013-01-22 06:52:00,